Probability
0 0 0 0 0 0 0 0 0 0 0 0 0 0 0 0 0 0 0 0 0 0 0 0 0 0 0 0 0 0 0 0 0 0 0 0 0 0 0 0 0 0 0 0
0 0 0 0 0 0 0 0 0 0 0 0 0 0 0 0 0 0 0 0 0 0 0 0 0 0 0 0 0 0 0 0 0 0 0 0 0 0 0 0 0 0 0 0
0 0 0 0 0 0 0 0 0 0 0 0 0 0 0 0 0 0 0 0 0 0 0 0 0 0 0 0 0 0 0 0 0 0 0 0 0 0 0 0 0 0 0 0
0 0 0 0 0 0 0 0 0 0 0 0 0 0 0 0 0 0 0 0 0 0 0 0 0 0 0 0 0 0 0 0 0 0 0 0 0 0 0 0 0 0 0 0
0 0 0 0 0 0 0 0 0 0 0 0 0 0 0 0 0 0 0 0 0 0 0 0 0 0 0 0 0 0 0 0 0 0 0 0 0 0 0 0 0 0 0 0
0 0 0 0 0 0 0 0 0 0 0 0 0 0 0 0 0 0 0 0 0 0 0 0 0 0 0 0 0 0 0 0 0 0 0 0 0 0 0 0 0 0 0 0
0 0 0 0 0 0 0 0 0 0 0 0 0 0 0 0 0 0 0 0 0 0 0 0 0 0 0 0 0 0 0 0 0 0 0 0 0 0 0 0 0 0 0 0
0 0 0 0 0 0 0 0 0 0 0 0 0 0 0 0 0 0 0 0 0 0 0 0 0 0 0 0 0 0 0 0 0 0 0 0 0 0 0 0 0 0 0 0
0 0 0 0 0 0 0 0 0 0 0 0 0 0 0 0 0 0 0 0 0 0 0 0 0 0 0 0 0 0 0 0 0 0 0 0 0 0 0 0 0 0 0 0
0 0 0 0 0 0 0 0 0 0 0 0 0 0 0 0 0 0 0 0 0 0 0 0 0 0 0 0 0 0 0 0 0 0 0 0 0 0 0 0 0 0 0 0
0 0 0 0 0 0 0 0 0 0 0 0 0 0 0 0 0 0 0 0 0 0 0 0 0 0 0 0 0 0 0 0 0 0 0 0 0 0 0 0 0 0 0 0
0 0 0 0 0 0 0 0 0 0 0 0 0 0 0 0 0 0 0 0 0 0 0 0 0 0 0 0 0 0 0 0 0 0 0 0 0 0 0 0 0 0 0 0
0 0 0 0 0 0 0 0 0 0 0 0 0 0 0 0 0 0 0 0 0 0 0 0 0 0 0 0 0 0 0 0 0 0 0 0 0 0 0 0 0 0 0 0
0 0 0 0 0 0 0 0 0 0 0 0 0 0 0 0 0 0 0 0 0 0 0 0 0 0 0 0 0 0 0 0 0 0 0 0 0 0 0 0 0 0 0 0
0 0 0 0 0 0 0 0 0 0 0 0 0 0 0 0 0 0 0 0 0 0 0 0 0 0 0 0 0 0 0 0 0 0 0 0 0 0 0 0 0 0 0 0
0 0 0 0 0 0 0 0 0 0 0 0 0 0 0 0 0 0 0 0 0 0 0 0 0 0 0 0 0 0 0 0 0 0 0 0 0 0 0 0 0 0 0 0
0 0 0 0 0 0 0 0 0 0 0 0 0 0 0 0 0 0 0 0 0 0 0 0 0 0 0 0 0 0 0 0 0 0 0 0 0 0 0 0 0 0 0 0
0 0 0 0 0 0 0 0 0 0 0 0 0 0 0 0 0 0 0 0 0 0 0 0 0 0 0 0 0 0 0 0 0 0 0 0 0 0 0 0 0 0 0 0
0 0 0 0 0 0 0 0 0 0 0 0 0 0 0 0 0 0 0 0 0 0 0 0 0 0 0 0 0 0 0 0 0 0 0 0 0 0 0 0 0 0 0 0
0 0 0 0 0 0 0 0 0 0 0 0 0 0 0 0 0 0 0 0 0 0 0 0 0 0 0 0 0 0 0 0 0 0 0 0 0 0 0 0 0 0 0 0
0 0 0 0 0 0 0 0 0 0 0 0 0 0 0 0 0 0 0 0 0 0 0 0 0 0 0 0 0 0 0 0 0 0 0 0 0 0 0 0 0 0 0 0
0 0 0 0 0 0 0 0 0 0 0 0 0 0 0 0 0 0 0 0 0 0 0 0 0 0 0 0 0 0 0 0 0 0 0 0 0 0 0 0 0 0 0 0
0 0 0 0 0 0 0 0 0 0 0 0 0 0 0 0 0 0 0 0 0 0 0 0 0 0 0 0 0 0 0 0 0 0 0 0 0 0 0 0 0 0 0 0
0 0 0 0 0 0 0 0 0 0 0 0 0 0 0 0 0 0 0 0 0 0 0 0 0 0 0 0 0 0 0 0 0 0 0 0 0 0 0 0 0 0 0 0
0 0 0 0 0 0 0 0 0 0 0 0 0 0 0 0 0 0 0 0 0 0 0 0 0 0 0 0 0 0 0 0 0 0 0 0 0 0 0 0 0 0 0 0
0 0 0 0 0 0 0 0 0 0 0 0 0 0 0 0 0 0 0 0 0 0 0 0 0 0 0 0 0 0 0 0 0 0 0 0 0 0 0 0 0 0 0 0
0 0 0 0 0 0 0 0 0 0 0 0 0 0 0 0 0 0 0 0 0 0 0 0 0 0 0 0 0 0 0 0 0 0 0 0 0 0 0 0 0 0 0 0
Wind_Speed
10 9 6 8 9 11 13 12 10 10 12 12 7 5 4 3 3 3 3 3 3 3 4 5 5 6 6 6 5 4 3 3 4 4 3 3 3 3 4 4 5 4 4 4
9 9 9 12 13 14 15 15 16 16 17 12 7 5 5 4 4 3 3 3 3 4 4 5 5 5 6 6 5 4 4 4 4 4 4 4 3 3 4 4 4 4 5 5
6 5 6 12 14 15 13 12 11 15 14 8 6 5 4 4 3 3 3 2 3 3 4 4 4 5 5 5 5 4 4 4 4 4 4 4 4 4 4 4 4 4 5 5
4 3 11 8 4 9 12 13 11 10 8 6 5 4 3 3 2 2 3 3 3 3 4 4 4 4 4 5 5 5 5 5 5 4 5 5 4 4 4 4 4 5 5 6
4 7 9 7 5 5 7 9 8 8 7 6 4 3 4 2 1 1 2 2 2 2 3 4 4 4 4 4 4 5 5 5 5 5 5 5 5 5 5 5 5 5 5 6
6 7 7 3 1 1 1 6 4 3 3 2 1 2 3 2 2 2 2 2 2 3 3 4 4 4 4 5 5 5 5 5 5 5 5 6 6 6 5 5 5 5 5 5
11 9 7 3 2 3 4 5 1 2 1 0 1 2 1 1 2 2 2 3 3 3 3 4 4 4 5 5 5 5 5 5 6 6 6 6 6 5 5 5 5 5 6 6
7 9 8 2 3 4 4 1 2 2 1 1 1 2 2 2 2 2 3 3 3 3 4 4 3 4 5 5 5 5 5 6 6 6 6 6 6 5 5 5 5 5 5 6
6 6 2 2 2 1 1 1 1 1 1 1 2 3 3 3 2 3 3 3 3 3 4 4 4 4 4 5 5 5 6 6 6 6 6 5 6 6 5 4 4 5 4 5
4 5 4 3 3 2 2 2 2 2 1 1 3 3 4 3 3 3 3 4 3 4 4 5 5 4 4 4 5 5 6 6 6 6 6 6 5 5 4 4 4 5 5 5
7 6 5 5 3 2 1 1 2 2 2 2 3 4 4 4 4 4 4 3 3 3 4 5 5 5 4 4 5 5 6 6 6 6 6 6 5 5 5 4 5 6 5 5
7 5 4 3 1 2 2 2 2 3 4 3 2 3 3 3 3 3 4 4 3 4 4 5 5 5 4 4 4 5 5 5 5 5 5 5 6 6 8 8 10 11 10 9
5 4 3 2 1 2 2 2 3 2 3 3 3 2 3 3 3 3 4 4 4 4 5 5 5 5 4 4 4 5 5 6 5 5 5 5 5 6 7 8 9 10 11 11
2 2 3 1 1 2 2 2 2 2 2 2 2 2 2 3 3 4 4 4 5 5 5 5 5 5 4 4 5 5 5 6 6 5 5 5 5 5 5 6 7 6 8 11
3 2 1 1 1 2 2 2 2 2 2 2 2 2 3 3 4 4 5 5 5 5 5 5 5 5 4 4 5 6 5 4 4 4 5 5 5 5 5 6 6 6 6 7
3 2 1 1 2 2 2 2 2 2 2 2 2 3 3 4 4 5 4 4 4 5 5 5 5 5 5 5 5 5 5 8 8 5 5 5 5 5 5 5 6 6 6 6
2 2 2 2 2 3 2 2 2 2 2 2 3 3 3 4 4 4 4 4 4 5 5 5 5 5 5 5 5 5 5 6 9 6 4 5 5 5 5 5 5 6 6 7
2 2 2 2 2 3 3 3 2 2 2 3 3 3 4 4 5 5 5 5 5 5 5 5 5 5 5 6 5 4 4 4 5 5 5 5 5 5 5 5 5 6 6 6
2 2 2 2 3 2 2 3 3 3 3 3 3 3 4 4 4 5 5 5 5 6 5 5 9 7 6 6 7 4 4 5 5 5 5 7 7 5 5 5 5 5 6 5
3 3 3 3 3 2 2 3 3 3 3 3 3 3 4 4 4 4 4 5 4 4 5 6 6 5 5 6 8 4 5 5 5 5 5 5 5 5 5 5 5 5 5 5
3 3 3 3 3 3 3 3 3 3 3 3 3 3 4 4 4 4 4 5 4 5 5 8 5 5 5 6 8 4 5 5 5 5 5 5 5 6 5 5 5 5 5 5
2 2 3 3 3 3 3 3 3 3 4 4 4 3 4 4 4 4 4 4 4 7 6 4 4 6 8 9 5 4 5 5 5 5 5 5 5 5 5 5 5 5 5 5
2 2 3 3 3 3 3 3 3 3 3 4 4 4 4 4 4 4 5 4 3 7 6 4 7 11 12 6 4 5 5 5 5 5 5 5 5 5 5 6 5 5 5 5
2 3 3 2 2 3 3 4 3 3 3 3 4 4 4 4 4 3 3 6 9 9 5 7 11 12 10 5 4 4 5 5 5 5 5 5 5 5 5 5 5 5 5 6
2 2 2 2 2 2 3 3 3 3 3 3 3 3 3 2 3 4 4 5 8 8 5 7 11 11 7 4 4 5 5 5 5 5 5 5 5 5 5 5 5 5 5 5
2 2 2 2 2 2 2 2 3 3 3 3 3 3 3 2 3 3 3 4 6 8 6 5 5 7 4 4 4 5 5 5 6 5 6 5 6 6 5 5 6 5 5 5
2 2 2 2 2 2 2 2 3 3 3 3 4 3 3 3 4 4 4 4 4 4 4 4 4 4 4 4 4 5 5 4 4 5 5 5 5 5 5 6 5 5 5 5
Wind_Direction
259 266 250 238 231 221 222 228 238 254 263 269 278 280 286 293 303 308 311 318 324 324 325 326 327 328 327 324 325 328 326 321 307 296 290 276 266 262 260 265 269 264 266 264
261 253 252 253 242 236 235 236 243 257 266 269 278 292 297 300 296 293 299 310 326 328 324 322 323 322 323 324 323 324 325 320 318 315 308 294 275 265 261 263 264 268 268 267
258 261 268 251 233 229 230 230 232 245 255 271 276 282 286 294 297 292 297 317 322 316 311 310 314 316 320 321 329 333 323 313 312 313 308 302 296 284 268 261 261 264 264 264
258 248 241 245 222 220 232 240 233 241 254 262 267 281 285 283 287 301 313 316 313 312 310 307 311 319 323 326 330 329 325 323 319 312 307 304 301 294 284 272 261 260 261 260
225 241 263 260 237 212 223 250 236 239 250 264 276 294 290 294 322 313 320 316 308 305 308 314 317 315 318 320 322 324 323 324 321 317 312 311 304 295 288 281 275 266 261 259
223 233 240 242 197 159 170 263 244 219 238 266 351 283 281 13 35 13 354 338 329 325 321 318 315 319 318 314 318 320 320 318 317 311 307 304 297 289 284 280 279 277 273 267
230 241 253 256 176 133 193 243 105 104 121 101 214 229 277 2 351 332 330 331 328 321 311 304 313 322 314 311 315 316 318 317 320 321 312 304 297 292 290 286 282 279 278 272
214 230 244 190 158 195 222 63 66 53 52 23 310 312 316 320 315 319 316 312 311 309 302 304 312 313 308 309 312 320 319 317 317 317 313 312 305 296 293 289 288 287 286 285
211 227 261 180 215 264 360 335 341 9 5 339 297 294 301 299 301 305 308 309 310 307 306 309 313 311 305 308 319 320 318 316 314 314 312 310 305 297 295 292 289 291 291 290
258 257 256 251 254 261 281 296 313 326 328 318 295 293 298 299 298 302 303 305 306 307 305 307 313 316 311 317 322 317 315 315 315 315 314 314 311 305 298 296 293 291 291 292
258 264 271 257 258 265 279 316 325 324 312 295 292 293 290 295 297 296 300 300 301 298 298 301 308 310 316 324 324 317 313 313 315 314 313 313 311 306 303 290 289 294 289 286
250 253 255 268 331 353 343 333 334 321 306 296 278 285 292 291 296 300 300 304 304 302 301 304 309 312 321 326 323 317 314 315 314 312 311 311 312 313 306 300 302 300 295 291
267 289 279 288 336 350 344 342 337 320 306 311 314 307 303 301 308 314 312 310 306 303 302 303 304 308 319 326 325 317 310 309 308 309 310 312 314 314 314 315 312 310 308 306
330 324 291 314 341 356 346 339 334 328 329 335 331 333 329 319 315 313 308 307 306 306 304 304 307 311 322 327 321 313 310 309 308 305 307 308 308 307 306 309 314 316 316 316
347 333 305 341 351 348 334 322 315 310 320 329 327 321 318 311 306 304 305 308 309 307 307 312 312 314 328 325 317 312 310 307 306 306 307 307 306 305 304 304 304 308 312 318
321 333 340 325 312 315 320 320 310 306 317 317 317 315 308 301 299 302 308 313 310 306 308 312 310 314 323 319 314 310 307 309 313 309 307 308 307 307 307 306 307 308 310 315
337 316 321 313 312 317 318 320 313 307 313 312 308 312 314 312 311 312 315 317 312 305 306 307 309 318 320 317 313 308 308 310 312 310 302 302 303 302 301 301 302 303 304 309
357 326 322 315 312 312 317 321 321 320 312 310 313 312 308 307 305 308 313 317 316 312 315 319 320 324 321 319 315 308 306 305 306 304 303 303 303 299 297 295 297 301 305 311
4 359 356 348 342 330 320 320 322 321 319 319 313 304 301 303 306 310 316 316 312 311 318 327 328 327 318 318 321 313 310 308 307 306 306 307 309 305 301 301 302 304 306 308
10 7 3 356 353 343 324 320 322 318 317 317 311 308 309 311 314 317 319 309 303 301 309 317 322 319 318 318 324 317 315 312 310 309 309 309 308 307 305 304 307 309 309 310
357 356 353 347 339 336 332 329 326 320 323 324 312 306 307 311 315 313 309 306 312 320 321 324 328 320 319 322 324 320 317 314 313 313 313 311 310 310 309 311 313 312 311 314
340 339 338 338 340 335 336 337 330 321 321 321 316 310 309 312 313 309 296 291 305 318 324 320 317 318 323 325 321 319 317 316 315 314 313 313 313 313 315 317 316 315 315 315
331 332 329 333 328 321 326 329 323 318 315 315 314 312 307 304 305 305 308 315 319 321 326 317 317 321 326 327 323 321 318 317 316 314 314 313 312 313 315 317 316 316 316 316
332 330 326 324 325 325 322 319 319 317 309 306 306 306 305 308 311 308 302 314 321 322 322 317 322 325 329 329 323 319 316 315 313 311 310 310 310 311 314 316 315 316 316 316
324 319 317 322 322 313 307 311 315 313 313 313 314 317 313 305 303 311 317 317 320 324 321 322 327 329 330 323 320 317 314 313 314 315 312 312 313 313 313 315 315 314 314 314
315 309 304 299 295 299 304 310 313 319 324 324 325 327 327 323 315 312 314 316 317 322 323 320 321 323 322 320 317 315 314 315 317 318 316 315 314 314 315 318 317 316 315 313
317 316 319 323 323 322 318 317 319 321 321 317 315 319 323 322 321 322 321 320 320 320 318 317 317 316 315 315 314 313 312 312 311 312 314 313 313 313 315 315 315 315 314 315